Location: Dodge City Community College Clyde Tombaugh Astronomy Center
(37.7756°N, 100.0412°W)
Time: 14:24:01
(UTC+00:00)

X-37B - Pass Details

Date: 07 December 2022
Orbit: 277 x 277 km, 45.0° (Epoch: 01 November)

Event Time Altitude Azimuth Distance (km) Brightness Sun altitude
Rises 00:58:29 0° 244° (WSW) 1,904 5.6 -18.7°
Reaches altitude 10° 01:00:24 10° 246° (WSW) 1,095 4.1 -19.1°
Enters shadow 01:02:05 38° 253° (WSW) 436 1.4 -19.4°
